Powrót do katalogu

COSMOS 1250

AktywnyMilitariaLEO
NORAD 12320·PAYLOAD·🇷🇺 Russia

Wystrzelony Mar 6, 1981 z Plesetsk Cosmodrome

Loading…

Następne Przeloty (najbliższe 24 godziny)

TLE

ŚwieżeSource: Space-Track

Epoka: Sep 14, 2026, 08:57 UTC

1 12320U 81022A   26257.37298412 -.00000020  00000-0 -19263-4 0  9998
2 12320  74.0274 230.2698 0053155 280.8630 234.0388 12.58283483 91125

Śledź COSMOS 1250 w czasie rzeczywistym z AllMySat

Download on the App Store